| time (UTC) | temp C | wind direction | speed KPH | gust KPH | rain 1hr cm | rain 24hr cm | rain mn cm | humidity % | barometer mb |
| 20260504235019 | 17 | 203 | 1.6 | 4.8 | 0.00 | 0.00 | 0.00 | 32 | 1006.3 |
| 20260504234019 | 18 | 203 | 1.6 | 4.8 | 0.00 | 0.00 | 0.00 | 28 | 1006.2 |
| 20260504233019 | 18 | 180 | 3.2 | 8.0 | 0.00 | 0.00 | 0.00 | 28 | 1006.1 |
| 20260504232019 | 18 | 203 | 4.8 | 9.7 | 0.00 | 0.00 | 0.00 | 25 | 1005.9 |
| 20260504231039 | 19 | 203 | 3.2 | 9.7 | 0.00 | 0.00 | 0.00 | 25 | 1005.8 |
| 20260504230019 | 19 | 203 | 1.6 | 6.4 | 0.00 | 0.00 | 0.00 | 25 | 1005.7 |
| 20260504225019 | 19 | 248 | 3.2 | 6.4 | 0.00 | 0.00 | 0.00 | 25 | 1005.3 |
| 20260504224019 | 20 | 225 | 3.2 | 9.7 | 0.00 | 0.00 | 0.00 | 23 | 1005.1 |
| 20260504223018 | 20 | 225 | 4.8 | 14.5 | 0.00 | 0.00 | 0.00 | 24 | 1005.2 |
| 20260504222019 | 20 | 225 | 4.8 | 14.5 | 0.00 | 0.00 | 0.00 | 23 | 1005.2 |
| 20260504221019 | 20 | 248 | 4.8 | 14.5 | 0.00 | 0.00 | 0.00 | 22 | 1005.3 |
| 20260504220019 | 20 | 248 | 3.2 | 12.9 | 0.00 | 0.00 | 0.00 | 23 | 1005.1 |
| 20260504215139 | 20 | 248 | 4.8 | 12.9 | 0.00 | 0.00 | 0.00 | 22 | 1005.3 |
| 20260504214019 | 20 | 225 | 4.8 | 17.7 | 0.00 | 0.00 | 0.00 | 21 | 1005.4 |
| 20260504213019 | 21 | 225 | 4.8 | 12.9 | 0.00 | 0.00 | 0.00 | 21 | 1005.2 |
| 20260504212019 | 21 | 248 | 4.8 | 14.5 | 0.00 | 0.00 | 0.00 | 22 | 1005.3 |
| 20260504211019 | 21 | 248 | 4.8 | 17.7 | 0.00 | 0.00 | 0.00 | 22 | 1005.2 |
| 20260504210018 | 20 | 225 | 3.2 | 12.9 | 0.00 | 0.00 | 0.00 | 23 | 1005.3 |
| 20260504205019 | 20 | 225 | 6.4 | 16.1 | 0.00 | 0.00 | 0.00 | 22 | 1005.2 |
| 20260504204019 | 20 | 203 | 4.8 | 14.5 | 0.00 | 0.00 | 0.00 | 23 | 1005.2 |
| 20260504203018 | 20 | 225 | 4.8 | 19.3 | 0.00 | 0.00 | 0.00 | 23 | 1005.2 |
| 20260504202019 | 20 | 225 | 4.8 | 16.1 | 0.00 | 0.00 | 0.00 | 23 | 1005.2 |
| 20260504201018 | 20 | 270 | 4.8 | 14.5 | 0.00 | 0.00 | 0.00 | 24 | 1005.4 |
| 20260504200019 | 20 | 225 | 3.2 | 12.9 | 0.00 | 0.00 | 0.00 | 25 | 1005.3 |
| 20260504195019 | 20 | 225 | 4.8 | 16.1 | 0.00 | 0.00 | 0.00 | 24 | 1005.3 |
| 20260504194018 | 20 | 225 | 8.0 | 20.9 | 0.00 | 0.00 | 0.00 | 23 | 1005.4 |
| 20260504193018 | 20 | 225 | 4.8 | 12.9 | 0.00 | 0.00 | 0.00 | 25 | 1005.4 |
| 20260504192019 | 20 | 203 | 4.8 | 14.5 | 0.00 | 0.00 | 0.00 | 26 | 1005.4 |
| 20260504191019 | 20 | 225 | 4.8 | 14.5 | 0.00 | 0.00 | 0.00 | 26 | 1005.4 |
| 20260504190018 | 20 | 248 | 4.8 | 14.5 | 0.00 | 0.00 | 0.00 | 27 | 1005.5 |
| 20260504185019 | 19 | 225 | 6.4 | 19.3 | 0.00 | 0.00 | 0.00 | 26 | 1005.5 |
| 20260504184018 | 18 | 248 | 6.4 | 17.7 | 0.00 | 0.00 | 0.00 | 28 | 1005.6 |
| 20260504183018 | 18 | 225 | 6.4 | 25.7 | 0.00 | 0.00 | 0.00 | 28 | 1005.6 |
| 20260504182038 | 18 | 225 | 4.8 | 14.5 | 0.00 | 0.00 | 0.00 | 28 | 1005.7 |
| 20260504181018 | 18 | 225 | 4.8 | 16.1 | 0.00 | 0.00 | 0.00 | 26 | 1005.6 |
| 20260504180019 | 18 | 248 | 4.8 | 12.9 | 0.00 | 0.00 | 0.00 | 26 | 1005.5 |
| 20260504175038 | 18 | 225 | 6.4 | 14.5 | 0.00 | 0.00 | 0.00 | 25 | 1005.6 |
| 20260504174019 | 18 | 248 | 6.4 | 14.5 | 0.00 | 0.00 | 0.00 | 24 | 1005.5 |
| 20260504173019 | 18 | 225 | 6.4 | 20.9 | 0.00 | 0.00 | 0.00 | 26 | 1005.6 |
| 20260504172018 | 18 | 225 | 8.0 | 22.5 | 0.00 | 0.00 | 0.00 | 26 | 1005.6 |
| 20260504171019 | 18 | 248 | 8.0 | 22.5 | 0.00 | 0.00 | 0.00 | 25 | 1005.7 |
| 20260504151038 | 16 | 203 | 9.7 | 20.9 | 0.00 | 0.00 | 0.00 | 31 | 1006.5 |
| 20260504141120 | 13 | 203 | 9.7 | 19.3 | 0.00 | 0.00 | 0.00 | 37 | 1007.2 |
| 20260504081020 | 2 | 0.0 | 0.0 | 0.00 | 0.00 | 0.00 | 65 | 1008.3 | |
| 20260504050019 | 0 | 113 | 1.6 | 3.2 | 0.00 | 0.00 | 0.00 | 68 | 1007.9 |
| 20260504045020 | 0 | 23 | 1.6 | 6.4 | 0.00 | 0.00 | 0.00 | 68 | 1007.9 |
| 20260504044019 | 0 | 23 | 1.6 | 4.8 | 0.00 | 0.00 | 0.00 | 68 | 1007.8 |
| 20260504043019 | 0 | 0.0 | 3.2 | 0.00 | 0.00 | 0.00 | 68 | 1007.8 | |
| 20260504042019 | 0 | 0.0 | 1.6 | 0.00 | 0.00 | 0.00 | 68 | 1007.7 | |
| 20260504041019 | 0 | 0.0 | 4.8 | 0.00 | 0.00 | 0.00 | 67 | 1007.6 | |
| 20260504040019 | 0 | 0.0 | 3.2 | 0.00 | 0.00 | 0.00 | 67 | 1007.5 | |
| 20260504035019 | 0 | 23 | 1.6 | 4.8 | 0.00 | 0.00 | 0.00 | 67 | 1007.6 |
| 20260504034019 | 0 | 23 | 3.2 | 6.4 | 0.00 | 0.00 | 0.00 | 67 | 1007.6 |
| 20260504033019 | 0 | 23 | 3.2 | 4.8 | 0.00 | 0.00 | 0.00 | 67 | 1007.6 |
| 20260504032020 | 0 | 23 | 1.6 | 4.8 | 0.00 | 0.00 | 0.00 | 66 | 1007.6 |
| 20260504031019 | 1 | 23 | 3.2 | 4.8 | 0.00 | 0.00 | 0.00 | 65 | 1007.5 |
| 20260504030059 | 1 | 23 | 1.6 | 3.2 | 0.00 | 0.00 | 0.00 | 65 | 1007.4 |
| 20260504025019 | 1 | 0.0 | 3.2 | 0.00 | 0.00 | 0.00 | 64 | 1007.5 | |
| 20260504024019 | 1 | 23 | 1.6 | 4.8 | 0.00 | 0.00 | 0.00 | 64 | 1007.5 |
| 20260504023019 | 1 | 23 | 1.6 | 4.8 | 0.00 | 0.00 | 0.00 | 63 | 1007.6 |
| 20260504022019 | 2 | 23 | 1.6 | 4.8 | 0.00 | 0.00 | 0.00 | 64 | 1007.6 |
| 20260504021019 | 2 | 0.0 | 3.2 | 0.00 | 0.00 | 0.00 | 63 | 1007.5 | |
| 20260504020019 | 2 | 23 | 1.6 | 4.8 | 0.00 | 0.00 | 0.00 | 63 | 1007.5 |
| 20260504015039 | 2 | 0.0 | 1.6 | 0.00 | 0.00 | 0.00 | 61 | 1007.5 | |
| 20260504014019 | 3 | 0.0 | 3.2 | 0.00 | 0.00 | 0.00 | 61 | 1007.6 | |
| 20260504013019 | 3 | 23 | 1.6 | 4.8 | 0.00 | 0.00 | 0.00 | 60 | 1007.5 |
| 20260504012019 | 3 | 23 | 1.6 | 4.8 | 0.00 | 0.03 | 0.00 | 58 | 1007.4 |
| 20260504011019 | 5 | 0.0 | 1.6 | 0.00 | 0.03 | 0.00 | 55 | 1007.5 | |
| 20260504010018 | 5 | 0.0 | 0.0 | 0.00 | 0.05 | 0.00 | 54 | 1007.4 | |
| 20260504005019 | 5 | 0.0 | 3.2 | 0.00 | 0.05 | 0.00 | 51 | 1007.3 | |
| 20260504004019 | 6 | 0.0 | 3.2 | 0.00 | 0.05 | 0.00 | 46 | 1007.2 | |
| 20260504003019 | 6 | 0.0 | 3.2 | 0.00 | 0.05 | 0.00 | 44 | 1007.1 | |
| 20260504002019 | 6 | 0 | 1.6 | 4.8 | 0.00 | 0.05 | 0.00 | 43 | 1007.0 |
| 20260504001018 | 7 | 270 | 1.6 | 14.5 | 0.00 | 0.05 | 0.00 | 42 | 1006.9 |
| 20260504000019 | 7 | 293 | 1.6 | 6.4 | 0.00 | 0.05 | 0.00 | 42 | 1006.7 |